OPS 4682 DEB, 38454

Orbit data source: Space-Track

OPS 4682 DEB, 38454 is space debris in LEO originally from a launch on Sat, 03 Apr 1965 UTC launched from the Air Force Western Test Range (AFWTR). Debris objects in space refer to the collection of defunct objects orbiting the Earth. Examples of debris include non-operational satellites, rocket bodies, and fragments generated from explosions, collisions, or faulty payload assembly.

Loading next visibility...
Identifier
38454, 1965-027FK
Orbit
LEO
Country
Flag of USUS
Related business
Manufacturer
Unknown
Mission
Spacecraft
Bus & Motor
Unknown
Mass
Unknown
Launch date (UTC)
1965-04-03 (61 years ago)
Launch vehicle
Unknown
Launch site
Air Force Western Test Range (AFWTR)
Object type
Payload
Rocket body
Debris
Shape & HBR
Unknown shape, 0.1 m
Radar Cross Section
Small (<0.1 m²)

Expand to show TLE details & history
Last TLE update: 2 days ago

TLE from 2 days ago
0 OPS 4682 DEB
1 38454U 65027FK  25301.59609695 -.00000384  00000-0 -13903-2 0  9999
2 38454  90.2435   1.9382 0036216 103.1124 257.4041 12.95211774552624
Epoch: 2025-10-28T14:18Z
TLE epoch observation values (Epoch: 2025-10-28T14:18:22.776Z)
Latitude
-0.00003°
Longitude
110.16198°
Altitude
1,289.927 km
Speed
7.208 km/s
True Right ascension
00h 07m 45s
True Declination
0° 00' 00"
Sunlit
Object was in full shadow at epoch
Visualization orbit readout
Latitude
Unknown
Longitude
Unknown
Altitude
Unknown
Speed
Unknown
Apparent Right ascension
Unknown
Apparent Declination
Unknown
Sunlit
N/A
Visualization observer readout
Local Sidereal Time
22:14:12
Azimuth
Unknown
Elevation
Unknown
Doppler factor
Unknown
Orbital elements
Apogee altitude
1,305.767 km
Perigee altitude
1,250.311 km
Semi-major axis
7,656.176 km
Eccentricity
0.00362
Inclination
90.2435°
RAAN
1.9382°
Arg. of periapsis
103.1124°
True anomaly
256.99949°
Mean anomaly
257.4041°
Eccentric anomaly
257.20175°
Mean motion
3.23985 °/min
Orbital period
111.12 mins
BSTAR
-0.0013903
Loading maneuver chart data...
Computing Atmospheric mass density...
Loading historical data...
Loading historical data...
Loading historical data...
Loading historical data...
Loading historical data...
Loading historical data...
Loading historical data...

Documentation

Showing up to 5 results
|